Regional Weather Roundup
Issued by NWS

Home | Current Version | Previous Version | Graphics & Text | Print | Product List | Glossary On
Versions: 1 2 3 4 5 6 7 8 9 10 11 12 13 14 15 16 17 18 19 20 21 22 23 24 25 26 27 28 29 30 31 32 33 34 35 36 37 38 39 40 41 42 43 44 45 46 47 48 49 50
000
ASUS44 KMEG 292200
RWRTN
TENNESSEE HOURLY STATE WEATHER ROUNDUP
NATIONAL WEATHER SERVICE MEMPHIS TN
500 PM CDT TUE JUL 29 2014

TNZ002-004-019-021-049-052-054-088>092-292300-
WEST TENNESSEE

CITY           SKY/WX    TMP DP  RH WIND       PRES   REMARKS
MEMPHIS INTL   MOSUNNY   78  54  43 N13       30.11F
NWS MEMPHIS      N/A     80 N/A N/A MISG        N/A
JACKSON        MOSUNNY   78  53  41 N8        30.11F
DYERSBURG      MOSUNNY   75  52  43 N8        30.12F
UNION CITY     SUNNY     75  52  43 NW5       30.11F
PARIS          MOSUNNY   73  54  49 N7        30.12S
LEXINGTON      SUNNY     75  54  46 N8        30.10S
SAVANNAH       MOSUNNY   79  55  44 N9        30.10F
$$

TNZ008-025-027-028-033-062-065-066-292300-
NORTH MIDDLE TENNESSEE

CITY           SKY/WX    TMP DP  RH WIND       PRES   REMARKS
NASHVILLE      PTSUNNY   80  51  36 N10G17    30.08S
CLARKSVILLE    PTSUNNY   82  49  31 N8        30.08F
COOKEVILLE     MOSUNNY   73  55  53 N7        30.08S
CROSSVILLE     MOSUNNY   73  50  44 N10       30.10S
$$

TNZ061-075-076-078-094-096-097-292300-
SOUTH MIDDLE TENNESSEE

CITY           SKY/WX    TMP DP  RH WIND       PRES   REMARKS
FAYETTEVILLE   PTSUNNY   73  52  46 N10       30.09R
WINCHESTER     MOSUNNY   73  54  49 N14       30.09R
MCMINNVILLE    SUNNY     73  57  56 N8        30.09S
COLUMBIA       MOSUNNY   79  54  41 N7        30.08S
SHELBYVILLE    SUNNY     77  54  44 N8        30.09S
$$

TNZ017-018-042-046-047-292300-
NORTHEAST TENNESSEE

CITY           SKY/WX    TMP DP  RH WIND       PRES   REMARKS
TRI CITIES     MOSUNNY   74  50  42 NW12      30.03R
ELIZABETHTON   PTCLDY    72  54  53 NW8         N/A
$$

TNZ012-013-036-069-073-074-292300-
CENTRAL EAST TENNESSEE

CITY           SKY/WX    TMP DP  RH WIND       PRES   REMARKS
KNOXVILLE      MOSUNNY   75  52  44 NW8       30.03R
OAK RIDGE      SUNNY     76  51  41 VRB7      30.06R
GATLINBURG     PTCLDY    75  54  46 N8        30.02S
$$

TNZ083-085-099-292300-
SOUTHEAST TENNESSEE

CITY           SKY/WX    TMP DP  RH WIND       PRES   REMARKS
CHATTANOOGA    MOSUNNY   79  48  33 N14       30.04S
$$

SKY/WX REPORTED AS FAIR MEANS FEW OR NO CLOUDS BELOW
12 THOUSAND FEET.



USA.gov is the U.S. government's official web portal to all federal, state and local government web resources and services.